Weather History for KLBR - November, 2012

Change the Weather History Date:

Saturday, November 10, 2012

  Actual Average (KPRX) Record (KPRX)
Temperature  
Mean Temperature 68 °F -  
Max Temperature 78 °F 62 °F 80 °F (2006)
Min Temperature 59 °F 45 °F 30 °F (2000)
Cooling Degree Days 4    
Growing Degree Days 18 (Base 50)    
Moisture  
Dew Point 57 °F    
Average Humidity 64    
Maximum Humidity 94    
Minimum Humidity 42    
Precipitation  
Precipitation 0.00 in - - ()
Sea Level Pressure  
Sea Level Pressure 29.98 in    
Wind  
Wind Speed 11 mph (SSE)    
Max Wind Speed 21 mph    
Max Gust Speed 29 mph    
Visibility 10 miles    
Events      
Averages and records for this station are not official NWS values.
T = Trace of Precipitation, MM = Missing Value Source: NWS Daily Summary

Daily Weather History Graph

Daily Weather History Graph

Search for Another Location

Airport or City:

Trip Planner

Search our weather history database for the weather conditions in past years. The results will help you decide how hot, cold, wet, or windy it might be!

Date:

Astronomy

Nov. 10, 2012 Rise Set
Actual Time 6:47 AM CST 5:20 PM CST
Civil Twilight 6:21 AM CST 5:46 PM CST
Nautical Twilight 5:51 AM CST 6:16 PM CST
Astronomical Twilight 5:22 AM CST 6:45 PM CST
Moon 3:03 AM CST (11/10) 2:59 PM CST (11/10)
Length of Visible Light 11h 24m
Length of Day
10h 32m
Waning Crescent, 14% of the Moon is Illuminated
Nov 10
Waning Crescent
Nov 13
New
Nov 20
First Quarter
Nov 28
Full
Dec 6
Last Quarter

Hourly Weather History & Observations

Time (CST) Temp. Dew Point Humidity Pressure Visibility Wind Dir Wind Speed Gust Speed Precip Events Conditions
12:15 AM 64.4 °F 55.4 °F 73% 30.04 in 10.0 mi SSE 9.2 mph - N/A   Clear
4:15 AM 60.8 °F 59.0 °F 94% 30.03 in 10.0 mi SE 5.8 mph - N/A   Scattered Clouds
4:35 AM 60.8 °F 59.0 °F 94% 30.03 in 10.0 mi SE 5.8 mph - N/A   Mostly Cloudy
4:55 AM 60.8 °F 59.0 °F 94% 30.04 in 10.0 mi SE 4.6 mph - N/A   Overcast
5:15 AM 60.8 °F 59.0 °F 94% 30.05 in 10.0 mi SE 6.9 mph - N/A   Overcast
6:15 AM 59.0 °F 57.2 °F 94% 30.06 in 10.0 mi SE 4.6 mph - N/A   Overcast
6:35 AM 60.8 °F 59.0 °F 94% 30.08 in 10.0 mi SE 3.5 mph - N/A   Overcast
6:55 AM 60.8 °F 59.0 °F 94% 30.07 in 10.0 mi SE 5.8 mph - N/A   Overcast
7:15 AM 60.8 °F 59.0 °F 94% 30.07 in 7.0 mi SE 6.9 mph - N/A   Overcast
7:35 AM 60.8 °F 59.0 °F 94% 30.08 in 10.0 mi SSE 8.1 mph - N/A   Overcast
7:55 AM 62.6 °F 59.0 °F 88% 30.08 in 10.0 mi SE 9.2 mph - N/A   Overcast
8:15 AM 62.6 °F 60.8 °F 94% 30.09 in 10.0 mi SE 9.2 mph - N/A   Overcast
8:35 AM 64.4 °F 60.8 °F 88% 30.09 in 10.0 mi SSE 9.2 mph - N/A   Overcast
8:55 AM 64.4 °F 60.8 °F 88% 30.09 in 10.0 mi SSE 9.2 mph - N/A   Mostly Cloudy
9:15 AM 68.0 °F 60.8 °F 78% 30.09 in 7.0 mi SE 12.7 mph - N/A   Scattered Clouds
9:35 AM 68.0 °F 60.8 °F 78% 30.08 in 10.0 mi SE 15.0 mph - N/A   Mostly Cloudy
9:55 AM 69.8 °F 59.0 °F 68% 30.07 in 7.0 mi SSE 16.1 mph 19.6 mph N/A   Scattered Clouds
10:15 AM 69.8 °F 59.0 °F 68% 30.07 in 10.0 mi SSE 12.7 mph 19.6 mph N/A   Scattered Clouds
10:35 AM 71.6 °F 59.0 °F 64% 30.06 in 10.0 mi SSE 13.8 mph - N/A   Scattered Clouds
10:55 AM 71.6 °F 59.0 °F 64% 30.05 in 10.0 mi SSE 16.1 mph 21.9 mph N/A   Scattered Clouds
11:15 AM 75.2 °F 57.2 °F 53% 30.03 in 10.0 mi SSE 18.4 mph 26.5 mph N/A   Mostly Cloudy
11:35 AM 75.2 °F 55.4 °F 50% 30.03 in 10.0 mi South 20.7 mph 28.8 mph N/A   Mostly Cloudy
11:55 AM 77.0 °F 55.4 °F 47% 30.01 in 10.0 mi South 19.6 mph 24.2 mph N/A   Scattered Clouds
12:15 PM 77.0 °F 55.4 °F 47% 30.00 in 10.0 mi SSE 18.4 mph 27.6 mph N/A   Scattered Clouds
12:35 PM 77.0 °F 55.4 °F 47% 29.99 in 10.0 mi SSE 17.3 mph 25.3 mph N/A   Scattered Clouds
12:55 PM 77.0 °F 55.4 °F 47% 29.97 in 10.0 mi SE 15.0 mph 20.7 mph N/A   Scattered Clouds
1:15 PM 77.0 °F 55.4 °F 47% 29.97 in 10.0 mi SSE 13.8 mph 23.0 mph N/A   Scattered Clouds
1:35 PM 78.8 °F 53.6 °F 42% 29.95 in 10.0 mi South 12.7 mph 24.2 mph N/A   Scattered Clouds
1:55 PM 78.8 °F 53.6 °F 42% 29.94 in 10.0 mi SSE 17.3 mph 24.2 mph N/A   Scattered Clouds
2:15 PM 77.0 °F 53.6 °F 44% 29.93 in 10.0 mi SSE 13.8 mph 23.0 mph N/A   Clear
2:35 PM 78.8 °F 53.6 °F 42% 29.93 in 10.0 mi SSE 17.3 mph 23.0 mph N/A   Clear
2:55 PM 78.8 °F 53.6 °F 42% 29.93 in 10.0 mi South 16.1 mph 23.0 mph N/A   Scattered Clouds
3:15 PM 78.8 °F 53.6 °F 42% 29.93 in 10.0 mi South 11.5 mph 19.6 mph N/A   Scattered Clouds
3:35 PM 78.8 °F 53.6 °F 42% 29.93 in 10.0 mi SSE 13.8 mph 19.6 mph N/A   Scattered Clouds
3:55 PM 77.0 °F 53.6 °F 44% 29.93 in 10.0 mi South 13.8 mph 19.6 mph N/A   Scattered Clouds
4:15 PM 77.0 °F 53.6 °F 44% 29.92 in 10.0 mi SSE 13.8 mph 23.0 mph N/A   Clear
4:35 PM 77.0 °F 53.6 °F 44% 29.93 in 7.0 mi SSE 13.8 mph 24.2 mph N/A   Scattered Clouds
4:55 PM 75.2 °F 53.6 °F 47% 29.93 in 10.0 mi SSE 15.0 mph 18.4 mph N/A   Scattered Clouds
5:15 PM 75.2 °F 53.6 °F 47% 29.93 in 10.0 mi SSE 13.8 mph 18.4 mph N/A   Scattered Clouds
5:35 PM 73.4 °F 53.6 °F 50% 29.93 in 10.0 mi SSE 8.1 mph - N/A   Mostly Cloudy
5:55 PM 73.4 °F 55.4 °F 53% 29.94 in 10.0 mi SE 9.2 mph - N/A   Scattered Clouds
6:15 PM 73.4 °F 55.4 °F 53% 29.95 in 10.0 mi SE 6.9 mph - N/A   Mostly Cloudy
6:35 PM 73.4 °F 55.4 °F 53% 29.95 in 10.0 mi SE 9.2 mph - N/A   Mostly Cloudy
6:55 PM 71.6 °F 55.4 °F 57% 29.94 in 10.0 mi SE 8.1 mph - N/A   Scattered Clouds
7:15 PM 71.6 °F 55.4 °F 57% 29.93 in 10.0 mi SE 9.2 mph - N/A   Clear
7:35 PM 71.6 °F 55.4 °F 57% 29.93 in 10.0 mi SE 9.2 mph - N/A   Clear
7:55 PM 71.6 °F 55.4 °F 57% 29.93 in 10.0 mi SE 10.4 mph - N/A   Clear
8:15 PM 69.8 °F 55.4 °F 60% 29.93 in 10.0 mi SE 10.4 mph 16.1 mph N/A   Clear
8:35 PM 69.8 °F 55.4 °F 60% 29.92 in 10.0 mi SE 11.5 mph 18.4 mph N/A   Clear
8:55 PM 69.8 °F 55.4 °F 60% 29.92 in 10.0 mi SE 11.5 mph 19.6 mph N/A   Clear
9:15 PM 69.8 °F 57.2 °F 64% 29.92 in 10.0 mi SE 11.5 mph - N/A   Clear
9:35 PM 69.8 °F 57.2 °F 64% 29.93 in 10.0 mi SE 10.4 mph - N/A   Clear
9:55 PM 69.8 °F 57.2 °F 64% 29.93 in 10.0 mi SSE 12.7 mph - N/A   Clear
10:15 PM 69.8 °F 57.2 °F 64% 29.93 in 10.0 mi SSE 15.0 mph 20.7 mph N/A   Clear
10:35 PM 69.8 °F 57.2 °F 64% 29.93 in 10.0 mi SSE 18.4 mph 21.9 mph N/A   Scattered Clouds
10:55 PM 69.8 °F 57.2 °F 64% 29.92 in 10.0 mi SSE 13.8 mph 19.6 mph N/A   Mostly Cloudy
11:15 PM 69.8 °F 57.2 °F 64% 29.92 in 10.0 mi SSE 12.7 mph 20.7 mph N/A   Scattered Clouds
11:35 PM 69.8 °F 57.2 °F 64% 29.92 in 10.0 mi SSE 12.7 mph - N/A   Clear
11:55 PM 68.0 °F 57.2 °F 68% 29.92 in 10.0 mi SE 10.4 mph 16.1 mph N/A   Scattered Clouds